Time,TemperatureF,DewpointF,PressureIn,WindDirection,WindDirectionDegrees,WindSpeedMPH,WindSpeedGustMPH,Humidity,HourlyPrecipIn,Conditions,Clouds,dailyrainin,SoftwareType,DateUTC
2013-05-18 00:02:00,68.0,-99.9,-100.00,SE,144,2.0,-999.0,-999,0.00,,,0.00,,2013-05-18 05:02:00,
2013-05-18 00:13:00,68.0,-99.9,-100.00,SE,144,2.0,-999.0,-999,0.00,,,0.00,,2013-05-18 05:13:00,
2013-05-18 00:22:00,68.0,-99.9,-100.00,SE,144,2.0,-999.0,-999,0.00,,,0.00,,2013-05-18 05:22:00,
2013-05-18 00:32:00,68.0,-99.9,-100.00,SSE,162,4.0,-999.0,-999,0.00,,,0.00,,2013-05-18 05:32:00,
2013-05-18 00:42:00,68.0,-99.9,-100.00,SSE,162,4.0,-999.0,-999,0.00,,,0.00,,2013-05-18 05:42:00,
2013-05-18 00:52:00,68.0,-99.9,-100.00,SSE,162,4.0,-999.0,-999,0.00,,,0.00,,2013-05-18 05:52:00,
2013-05-18 01:02:00,68.0,-99.9,-100.00,SSE,160,0.0,-999.0,-999,0.00,,,0.00,,2013-05-18 06:02:00,
2013-05-18 01:12:00,68.0,-99.9,-100.00,SSE,160,0.0,-999.0,-999,0.00,,,0.00,,2013-05-18 06:12:00,
2013-05-18 01:22:00,68.0,-99.9,-100.00,SSE,160,0.0,-999.0,-999,0.00,,,0.00,,2013-05-18 06:22:00,
2013-05-18 01:32:00,68.0,-99.9,-100.00,SSW,199,1.0,-999.0,-999,0.00,,,0.00,,2013-05-18 06:32:00,
2013-05-18 01:42:00,68.0,-99.9,-100.00,SSW,199,1.0,-999.0,-999,0.00,,,0.00,,2013-05-18 06:42:00,
2013-05-18 01:52:00,68.0,-99.9,-100.00,SSW,199,1.0,-999.0,-999,0.00,,,0.00,,2013-05-18 06:52:00,
2013-05-18 02:01:00,67.0,-99.9,-100.00,SSE,160,1.0,-999.0,-999,0.00,,,0.00,,2013-05-18 07:01:00,
2013-05-18 02:12:00,67.0,-99.9,-100.00,SSE,160,1.0,-999.0,-999,0.00,,,0.00,,2013-05-18 07:12:00,
2013-05-18 02:22:00,67.0,-99.9,-100.00,SSE,160,1.0,-999.0,-999,0.00,,,0.00,,2013-05-18 07:22:00,
2013-05-18 02:32:00,67.0,-99.9,-100.00,NNW,347,0.0,-999.0,-999,0.00,,,0.00,,2013-05-18 07:32:00,
2013-05-18 02:43:00,67.0,-99.9,-100.00,NNW,347,0.0,-999.0,-999,0.00,,,0.00,,2013-05-18 07:43:00,
2013-05-18 02:53:00,67.0,-99.9,-100.00,NNW,347,0.0,-999.0,-999,0.00,,,0.00,,2013-05-18 07:53:00,
2013-05-18 03:02:00,65.0,-99.9,-100.00,ENE,65,1.0,-999.0,-999,0.00,,,0.00,,2013-05-18 08:02:00,
2013-05-18 03:11:00,65.0,-99.9,-100.00,ENE,65,1.0,-999.0,-999,0.00,,,0.00,,2013-05-18 08:11:00,
2013-05-18 03:22:00,65.0,-99.9,-100.00,ENE,65,1.0,-999.0,-999,0.00,,,0.00,,2013-05-18 08:22:00,
2013-05-18 03:33:00,65.0,-99.9,-100.00,ENE,69,2.0,-999.0,-999,0.00,,,0.00,,2013-05-18 08:33:00,
2013-05-18 03:42:00,65.0,-99.9,-100.00,ENE,69,2.0,-999.0,-999,0.00,,,0.00,,2013-05-18 08:42:00,
2013-05-18 03:52:00,65.0,-99.9,-100.00,ENE,69,2.0,-999.0,-999,0.00,,,0.00,,2013-05-18 08:52:00,
2013-05-18 04:00:00,65.0,-99.9,-100.00,WSW,256,0.0,-999.0,-999,0.00,,,0.00,,2013-05-18 09:00:00,
2013-05-18 04:02:00,65.0,-99.9,-100.00,SE,142,0.0,-999.0,-999,0.00,,,0.00,,2013-05-18 09:02:00,
2013-05-18 04:12:00,65.0,-99.9,-100.00,SE,142,0.0,-999.0,-999,0.00,,,0.00,,2013-05-18 09:12:00,
2013-05-18 04:22:00,65.0,-99.9,-100.00,SE,142,0.0,-999.0,-999,0.00,,,0.00,,2013-05-18 09:22:00,
2013-05-18 04:33:00,65.0,-99.9,-100.00,WSW,256,0.0,-999.0,-999,0.00,,,0.00,,2013-05-18 09:33:00,
2013-05-18 04:43:00,65.0,-99.9,-100.00,WSW,256,0.0,-999.0,-999,0.00,,,0.00,,2013-05-18 09:43:00,
2013-05-18 04:53:00,65.0,-99.9,-100.00,WSW,256,0.0,-999.0,-999,0.00,,,0.00,,2013-05-18 09:53:00,
2013-05-18 05:33:00,64.0,-99.9,-100.00,NE,53,2.0,-999.0,-999,0.00,,,0.00,,2013-05-18 10:33:00,
2013-05-18 05:42:00,64.0,-99.9,-100.00,NE,53,2.0,-999.0,-999,0.00,,,0.00,,2013-05-18 10:42:00,
2013-05-18 05:53:00,64.0,-99.9,-100.00,NE,53,2.0,-999.0,-999,0.00,,,0.00,,2013-05-18 10:53:00,
2013-05-18 06:00:00,64.0,-99.9,-100.00,ESE,110,1.0,-999.0,-999,0.00,,,0.00,,2013-05-18 11:00:00,
2013-05-18 06:03:00,64.0,-99.9,-100.00,SSE,147,1.0,-999.0,-999,0.00,,,0.00,,2013-05-18 11:03:00,
2013-05-18 06:12:00,64.0,-99.9,-100.00,SSE,147,1.0,-999.0,-999,0.00,,,0.00,,2013-05-18 11:12:00,
2013-05-18 06:22:00,64.0,-99.9,-100.00,SSE,147,1.0,-999.0,-999,0.00,,,0.00,,2013-05-18 11:22:00,
2013-05-18 06:33:00,64.0,-99.9,-100.00,ESE,110,1.0,-999.0,-999,0.00,,,0.00,,2013-05-18 11:33:00,
2013-05-18 06:42:00,64.0,-99.9,-100.00,ESE,110,1.0,-999.0,-999,0.00,,,0.00,,2013-05-18 11:42:00,
2013-05-18 06:52:00,64.0,-99.9,-100.00,ESE,110,1.0,-999.0,-999,0.00,,,0.00,,2013-05-18 11:52:00,
2013-05-18 08:01:00,66.0,-99.9,-100.00,SSE,153,5.0,-999.0,-999,-99.99,,,0.00,,2013-05-18 13:01:00,
2013-05-18 08:12:00,66.0,-99.9,-100.00,SSE,153,5.0,-999.0,-999,-99.99,,,0.00,,2013-05-18 13:12:00,
2013-05-18 08:22:00,66.0,-99.9,-100.00,SSE,153,5.0,-999.0,-999,-99.99,,,0.00,,2013-05-18 13:22:00,
2013-05-18 08:33:00,66.0,-99.9,-100.00,SE,124,2.0,-999.0,-999,0.00,,,0.00,,2013-05-18 13:33:00,
2013-05-18 08:43:00,66.0,-99.9,-100.00,SE,124,2.0,-999.0,-999,0.00,,,0.00,,2013-05-18 13:43:00,
2013-05-18 08:53:00,66.0,-99.9,-100.00,SE,124,2.0,-999.0,-999,0.00,,,0.00,,2013-05-18 13:53:00,
2013-05-18 09:04:00,68.0,-99.9,-100.00,SE,141,2.0,-999.0,-999,0.00,,,0.00,,2013-05-18 14:04:00,
2013-05-18 09:12:00,68.0,-99.9,-100.00,SE,141,2.0,-999.0,-999,0.00,,,0.00,,2013-05-18 14:12:00,
2013-05-18 09:22:00,68.0,-99.9,-100.00,SE,141,2.0,-999.0,-999,0.00,,,0.00,,2013-05-18 14:22:00,
2013-05-18 09:33:00,69.0,-99.9,-100.00,SSE,160,3.0,-999.0,-999,0.00,,,0.00,,2013-05-18 14:33:00,
2013-05-18 09:43:00,69.0,-99.9,-100.00,SSE,160,3.0,-999.0,-999,0.00,,,0.00,,2013-05-18 14:43:00,
2013-05-18 09:54:00,69.0,-99.9,-100.00,SSE,160,3.0,-999.0,-999,0.00,,,0.00,,2013-05-18 14:54:00,
2013-05-18 10:03:00,71.0,-99.9,-100.00,SSE,162,4.0,-999.0,-999,0.00,,,0.00,,2013-05-18 15:03:00,
2013-05-18 10:13:00,71.0,-99.9,-100.00,SSE,162,4.0,-999.0,-999,0.00,,,0.00,,2013-05-18 15:13:00,
2013-05-18 10:23:00,71.0,-99.9,-100.00,SSE,162,4.0,-999.0,-999,0.00,,,0.00,,2013-05-18 15:23:00,
2013-05-18 10:33:00,73.0,-99.9,-100.00,SSE,168,5.0,-999.0,-999,0.00,,,0.00,,2013-05-18 15:33:00,
2013-05-18 10:44:00,73.0,-99.9,-100.00,SSE,168,5.0,-999.0,-999,0.00,,,0.00,,2013-05-18 15:44:00,
2013-05-18 10:54:00,73.0,-99.9,-100.00,SSE,168,5.0,-999.0,-999,0.00,,,0.00,,2013-05-18 15:54:00,
2013-05-18 11:03:00,72.0,-99.9,-100.00,SSE,156,8.0,-999.0,-999,0.00,,,0.00,,2013-05-18 16:03:00,
2013-05-18 11:13:00,72.0,-99.9,-100.00,SSE,156,8.0,-999.0,-999,0.00,,,0.00,,2013-05-18 16:13:00,
2013-05-18 11:22:00,72.0,-99.9,-100.00,SSE,156,8.0,-999.0,-999,0.00,,,0.00,,2013-05-18 16:22:00,
2013-05-18 11:33:00,72.0,-99.9,-100.00,SSE,149,8.0,-999.0,-999,0.00,,,0.00,,2013-05-18 16:33:00,
2013-05-18 11:42:00,72.0,-99.9,-100.00,SSE,149,8.0,-999.0,-999,0.00,,,0.00,,2013-05-18 16:42:00,
2013-05-18 11:53:00,72.0,-99.9,-100.00,SSE,149,8.0,-999.0,-999,0.00,,,0.00,,2013-05-18 16:53:00,
2013-05-18 12:03:00,73.0,-99.9,-100.00,SSE,150,10.0,-999.0,-999,0.00,,,0.00,,2013-05-18 17:03:00,
2013-05-18 12:12:00,73.0,-99.9,-100.00,SSE,150,10.0,-999.0,-999,0.00,,,0.00,,2013-05-18 17:12:00,
2013-05-18 12:22:00,73.0,-99.9,-100.00,SSE,150,10.0,-999.0,-999,0.00,,,0.00,,2013-05-18 17:22:00,
2013-05-18 12:33:00,72.0,-99.9,-100.00,SSE,155,11.0,-999.0,-999,0.00,,,0.00,,2013-05-18 17:33:00,
2013-05-18 12:42:00,72.0,-99.9,-100.00,SSE,155,11.0,-999.0,-999,0.00,,,0.00,,2013-05-18 17:42:00,
2013-05-18 12:52:00,72.0,-99.9,-100.00,SSE,155,11.0,-999.0,-999,0.00,,,0.00,,2013-05-18 17:52:00,
2013-05-18 13:02:00,75.0,-99.9,-100.00,SE,134,11.0,-999.0,-999,0.00,,,0.00,,2013-05-18 18:02:00,
2013-05-18 13:12:00,75.0,-99.9,-100.00,SE,134,11.0,-999.0,-999,0.00,,,0.00,,2013-05-18 18:12:00,
2013-05-18 13:22:00,75.0,-99.9,-100.00,SE,134,11.0,-999.0,-999,0.00,,,0.00,,2013-05-18 18:22:00,
2013-05-18 13:32:00,75.0,-99.9,-100.00,SE,124,12.0,-999.0,-999,0.00,,,0.00,,2013-05-18 18:32:00,
2013-05-18 13:42:00,75.0,-99.9,-100.00,SE,124,12.0,-999.0,-999,0.00,,,0.00,,2013-05-18 18:42:00,
2013-05-18 13:52:00,75.0,-99.9,-100.00,SE,124,12.0,-999.0,-999,0.00,,,0.00,,2013-05-18 18:52:00,
2013-05-18 14:02:00,75.0,-99.9,-100.00,SSE,150,9.0,-999.0,-999,0.00,,,0.00,,2013-05-18 19:02:00,
2013-05-18 14:12:00,75.0,-99.9,-100.00,SSE,150,9.0,-999.0,-999,0.00,,,0.00,,2013-05-18 19:12:00,
2013-05-18 14:22:00,75.0,-99.9,-100.00,SSE,150,9.0,-999.0,-999,0.00,,,0.00,,2013-05-18 19:22:00,
2013-05-18 14:32:00,75.0,-99.9,-100.00,SSE,149,8.0,-999.0,-999,0.00,,,0.00,,2013-05-18 19:32:00,
2013-05-18 14:42:00,75.0,-99.9,-100.00,SSE,149,8.0,-999.0,-999,0.00,,,0.00,,2013-05-18 19:42:00,
2013-05-18 14:52:00,75.0,-99.9,-100.00,SSE,149,8.0,-999.0,-999,0.00,,,0.00,,2013-05-18 19:52:00,
2013-05-18 15:02:00,74.0,-99.9,-100.00,SSE,153,9.0,-999.0,-999,0.00,,,0.00,,2013-05-18 20:02:00,
2013-05-18 15:12:00,74.0,-99.9,-100.00,SSE,153,9.0,-999.0,-999,0.00,,,0.00,,2013-05-18 20:12:00,
2013-05-18 15:22:00,74.0,-99.9,-100.00,SSE,153,9.0,-999.0,-999,0.00,,,0.00,,2013-05-18 20:22:00,
2013-05-18 15:32:00,78.0,-99.9,-100.00,SSE,154,10.0,-999.0,-999,0.00,,,0.00,,2013-05-18 20:32:00,
2013-05-18 15:42:00,78.0,-99.9,-100.00,SSE,154,10.0,-999.0,-999,0.00,,,0.00,,2013-05-18 20:42:00,
2013-05-18 15:52:00,78.0,-99.9,-100.00,SSE,154,10.0,-999.0,-999,0.00,,,0.00,,2013-05-18 20:52:00,
2013-05-18 16:01:00,75.0,-99.9,-100.00,SSE,148,10.0,-999.0,-999,0.00,,,0.00,,2013-05-18 21:01:00,
2013-05-18 16:12:00,75.0,-99.9,-100.00,SSE,148,10.0,-999.0,-999,0.00,,,0.00,,2013-05-18 21:12:00,
2013-05-18 16:22:00,75.0,-99.9,-100.00,SSE,148,10.0,-999.0,-999,0.00,,,0.00,,2013-05-18 21:22:00,
2013-05-18 16:33:00,75.0,-99.9,-100.00,SSE,156,11.0,-999.0,-999,0.00,,,0.00,,2013-05-18 21:33:00,
2013-05-18 16:44:00,75.0,-99.9,-100.00,SSE,156,11.0,-999.0,-999,0.00,,,0.00,,2013-05-18 21:44:00,
2013-05-18 16:53:00,75.0,-99.9,-100.00,SSE,156,11.0,-999.0,-999,0.00,,,0.00,,2013-05-18 21:53:00,
2013-05-18 17:03:00,77.0,-99.9,-100.00,SSE,152,11.0,-999.0,-999,-99.99,,,0.00,,2013-05-18 22:03:00,
2013-05-18 17:13:00,77.0,-99.9,-100.00,SSE,152,11.0,-999.0,-999,-99.99,,,0.00,,2013-05-18 22:13:00,
2013-05-18 17:23:00,77.0,-99.9,-100.00,SSE,152,11.0,-999.0,-999,-99.99,,,0.00,,2013-05-18 22:23:00,
2013-05-18 17:33:00,79.0,-99.9,-100.00,SSE,156,12.0,-999.0,-999,0.00,,,0.00,,2013-05-18 22:33:00,
2013-05-18 17:42:00,79.0,-99.9,-100.00,SSE,156,12.0,-999.0,-999,0.00,,,0.00,,2013-05-18 22:42:00,
2013-05-18 17:53:00,79.0,-99.9,-100.00,SSE,156,12.0,-999.0,-999,0.00,,,0.00,,2013-05-18 22:53:00,
2013-05-18 18:02:00,77.0,-99.9,-100.00,SSE,156,11.0,-999.0,-999,0.00,,,0.00,,2013-05-18 23:02:00,
2013-05-18 18:12:00,77.0,-99.9,-100.00,SSE,156,11.0,-999.0,-999,0.00,,,0.00,,2013-05-18 23:12:00,
2013-05-18 18:22:00,77.0,-99.9,-100.00,SSE,156,11.0,-999.0,-999,0.00,,,0.00,,2013-05-18 23:22:00,
2013-05-18 18:30:00,75.0,-99.9,-100.00,SSE,151,10.0,-999.0,-999,0.00,,,0.00,,2013-05-18 23:30:00,
2013-05-18 18:32:00,78.0,-99.9,-100.00,SSE,147,10.0,-999.0,-999,0.00,,,0.00,,2013-05-18 23:32:00,
2013-05-18 18:42:00,78.0,-99.9,-100.00,SSE,147,10.0,-999.0,-999,0.00,,,0.00,,2013-05-18 23:42:00,
2013-05-18 18:53:00,78.0,-99.9,-100.00,SSE,147,10.0,-999.0,-999,0.00,,,0.00,,2013-05-18 23:53:00,
2013-05-18 19:02:00,75.0,-99.9,-100.00,SSE,151,10.0,-999.0,-999,0.00,,,0.00,,2013-05-19 00:02:00,
2013-05-18 19:12:00,75.0,-99.9,-100.00,SSE,151,10.0,-999.0,-999,0.00,,,0.00,,2013-05-19 00:12:00,
2013-05-18 19:22:00,75.0,-99.9,-100.00,SSE,151,10.0,-999.0,-999,0.00,,,0.00,,2013-05-19 00:22:00,
2013-05-18 20:01:00,74.0,-99.9,-100.00,SSE,153,7.0,-999.0,-999,0.00,,,-99.99,,2013-05-19 01:01:00,
2013-05-18 20:11:00,74.0,-99.9,-100.00,SSE,153,7.0,-999.0,-999,0.00,,,-99.99,,2013-05-19 01:11:00,
2013-05-18 20:22:00,74.0,-99.9,-100.00,SSE,153,7.0,-999.0,-999,0.00,,,-99.99,,2013-05-19 01:22:00,
2013-05-18 20:32:00,74.0,-99.9,-100.00,SE,137,6.0,-999.0,-999,0.00,,,0.00,,2013-05-19 01:32:00,
2013-05-18 20:42:00,74.0,-99.9,-100.00,SE,137,6.0,-999.0,-999,0.00,,,0.00,,2013-05-19 01:42:00,
2013-05-18 20:52:00,74.0,-99.9,-100.00,SE,137,6.0,-999.0,-999,0.00,,,0.00,,2013-05-19 01:52:00,
2013-05-18 21:02:00,75.0,-99.9,-100.00,SE,146,4.0,-999.0,-999,0.00,,,0.00,,2013-05-19 02:02:00,
2013-05-18 21:11:00,75.0,-99.9,-100.00,SE,146,4.0,-999.0,-999,0.00,,,0.00,,2013-05-19 02:11:00,
2013-05-18 21:22:00,75.0,-99.9,-100.00,SE,146,4.0,-999.0,-999,0.00,,,0.00,,2013-05-19 02:22:00,
2013-05-18 21:32:00,73.0,-99.9,-100.00,SE,131,3.0,-999.0,-999,0.00,,,0.00,,2013-05-19 02:32:00,
2013-05-18 21:43:00,73.0,-99.9,-100.00,SE,131,3.0,-999.0,-999,0.00,,,0.00,,2013-05-19 02:43:00,
2013-05-18 21:52:00,73.0,-99.9,-100.00,SE,131,3.0,-999.0,-999,0.00,,,0.00,,2013-05-19 02:52:00,
2013-05-18 22:02:00,74.0,-99.9,-100.00,ESE,112,7.0,-999.0,-999,0.00,,,0.00,,2013-05-19 03:02:00,
2013-05-18 22:11:00,74.0,-99.9,-100.00,ESE,112,7.0,-999.0,-999,0.00,,,0.00,,2013-05-19 03:11:00,
2013-05-18 22:22:00,74.0,-99.9,-100.00,ESE,112,7.0,-999.0,-999,0.00,,,0.00,,2013-05-19 03:22:00,
2013-05-18 22:33:00,74.0,-99.9,-100.00,ESE,108,8.0,-999.0,-999,0.00,,,0.00,,2013-05-19 03:33:00,
2013-05-18 22:43:00,74.0,-99.9,-100.00,ESE,108,8.0,-999.0,-999,0.00,,,0.00,,2013-05-19 03:43:00,
2013-05-18 22:53:00,74.0,-99.9,-100.00,ESE,108,8.0,-999.0,-999,0.00,,,0.00,,2013-05-19 03:53:00,
2013-05-18 23:03:00,73.0,-99.9,-100.00,SE,127,6.0,-999.0,-999,0.00,,,0.00,,2013-05-19 04:03:00,
2013-05-18 23:13:00,73.0,-99.9,-100.00,SE,127,6.0,-999.0,-999,0.00,,,0.00,,2013-05-19 04:13:00,
2013-05-18 23:23:00,73.0,-99.9,-100.00,SE,127,6.0,-999.0,-999,0.00,,,0.00,,2013-05-19 04:23:00,
2013-05-18 23:33:00,71.0,-99.9,-100.00,SE,146,5.0,-999.0,-999,0.00,,,0.00,,2013-05-19 04:33:00,
2013-05-18 23:42:00,71.0,-99.9,-100.00,SE,146,5.0,-999.0,-999,0.00,,,0.00,,2013-05-19 04:42:00,
2013-05-18 23:53:00,71.0,-99.9,-100.00,SE,146,5.0,-999.0,-999,0.00,,,0.00,,2013-05-19 04:53:00,